Weather History for Fort Sill, OK

Change the Weather History Date:

Saturday, May 4, 2013

  Actual Average Record
Temperature  
Mean Temperature 51 °F -  
Max Temperature 67 °F 76 °F 97 °F (2014)
Min Temperature 35 °F 53 °F 35 °F (1954)
Degree Days  
Heating Degree Days 14    
Growing Degree Days 1 (Base 50)    
Moisture  
Dew Point 30 °F    
Average Humidity 46    
Maximum Humidity 84    
Minimum Humidity 15    
Precipitation  
Precipitation 0.00 in - - ()
Sea Level Pressure  
Sea Level Pressure 29.99 in    
Wind  
Wind Speed 9 mph (North)    
Max Wind Speed 25 mph    
Max Gust Speed 39 mph    
Visibility 10 miles    
Events      
Averages and records for this station are not official NWS values.
T = Trace of Precipitation, MM = Missing Value Source: NWS Daily Summary

Daily Weather History Graph

Daily Weather History Graph

Search for Another Location

Airport:

Trip Planner

Search our weather history database for the weather conditions in past years. The results will help you decide how hot, cold, wet, or windy it might be!

Date:

Astronomy

May. 04, 2013 Rise Set
Actual Time 6:40 AM CDT 8:21 PM CDT
Civil Twilight 6:12 AM CDT 8:48 PM CDT
Nautical Twilight 5:40 AM CDT 9:21 PM CDT
Astronomical Twilight 5:05 AM CDT 9:55 PM CDT
Moon 3:26 AM CDT (5/4) 3:32 PM CDT (5/4)
Length of Visible Light 14h 35m
Length of Day
13h 41m
Waning Crescent, 27% of the Moon is Illuminated
May 4
Waning Crescent
May 9
New
May 17
First Quarter
May 24
Full
May 31
Last Quarter

Hourly Weather History & Observations

Time (CDT) Temp. Windchill Dew Point Humidity Pressure Visibility Wind Dir Wind Speed Gust Speed Precip Events Conditions
12:58 AM 45.7 °F - 31.5 °F 58% 30.03 in 10.0 mi Calm Calm - N/A   Clear
1:58 AM 44.1 °F 42.5 °F 31.5 °F 61% 30.01 in 10.0 mi North 3.5 mph - N/A   Clear
2:58 AM 42.4 °F 40.7 °F 31.8 °F 66% 30.00 in 10.0 mi WNW 3.5 mph - N/A   Clear
3:58 AM 39.7 °F - 31.5 °F 72% 29.98 in 10.0 mi Calm Calm - N/A   Clear
4:58 AM 39.4 °F - 31.1 °F 72% 29.98 in 10.0 mi Calm Calm - N/A   Clear
5:58 AM 37.8 °F 30.7 °F 32.9 °F 83% 29.98 in 10.0 mi North 10.4 mph - N/A   Clear
6:58 AM 35.4 °F 27.8 °F 31.1 °F 84% 29.98 in 10.0 mi North 10.4 mph - N/A   Clear
7:58 AM 48.0 °F - 32.9 °F 56% 30.00 in 10.0 mi NNW 10.4 mph - N/A   Clear
8:58 AM 52.5 °F - 29.7 °F 42% 30.01 in 10.0 mi NNW 13.8 mph - N/A   Clear
9:58 AM 56.7 °F - 22.8 °F 27% 30.01 in 10.0 mi NNW 17.3 mph 25.3 mph N/A   Clear
10:58 AM 58.8 °F - 27.5 °F 30% 30.01 in 10.0 mi NW 17.3 mph 21.9 mph N/A   Clear
11:58 AM 61.7 °F - 27.5 °F 27% 30.00 in 10.0 mi NW 17.3 mph 25.3 mph N/A   Clear
12:58 PM 63.7 °F - 23.4 °F 22% 29.98 in 10.0 mi NNW 25.3 mph 39.1 mph N/A   Clear
1:58 PM 65.1 °F - 20.8 °F 18% 29.97 in 10.0 mi NW 25.3 mph 39.1 mph N/A   Clear
2:58 PM 66.7 °F - 17.2 °F 15% 29.95 in 10.0 mi North 20.7 mph 34.5 mph N/A   Clear
3:58 PM 67.1 °F - 18.5 °F 16% 29.94 in 10.0 mi North 25.3 mph 33.4 mph N/A   Clear
4:58 PM 67.8 °F - 24.6 °F 20% 29.94 in 10.0 mi North 17.3 mph 29.9 mph N/A   Clear
5:58 PM 66.7 °F - 27.5 °F 23% 29.94 in 10.0 mi North 17.3 mph 25.3 mph N/A   Clear
6:58 PM 65.5 °F - 28.6 °F 25% 29.94 in 10.0 mi North 13.8 mph 24.2 mph N/A   Clear
7:17 PM 64.4 °F - 30.2 °F 28% 29.95 in 10.0 mi NNE 15.0 mph 23.0 mph N/A   Clear
7:18 PM 64.4 °F - 32.0 °F 30% 29.95 in 10.0 mi NE 16.1 mph 23.0 mph N/A   Clear
7:58 PM 59.0 °F - 37.9 °F 46% 29.98 in 10.0 mi NE 16.1 mph 20.7 mph N/A   Clear
8:58 PM 53.4 °F - 38.8 °F 58% 30.01 in 10.0 mi NNE 15.0 mph - N/A   Clear
9:58 PM 51.6 °F - 39.9 °F 64% 30.04 in 10.0 mi NNE 10.4 mph - N/A   Clear
10:58 PM 49.8 °F - 40.1 °F 69% 30.06 in 10.0 mi NNE 11.5 mph - N/A   Clear
11:58 PM 47.7 °F - 40.3 °F 76% 30.07 in 10.0 mi NNE 6.9 mph - N/A   Clear